| time (UTC) | temp F | wind direction | speed MPH | gust MPH | rain 1hr in | rain 24hr in | rain mn in | humidity % | barometer mb |
| 20260902101603 | 72 | 209 | 1.0 | 1.0 | 0.00 | 0.00 | 0.00 | 99 | 4254.5 |
| 20260902100602 | 72 | 226 | 1.0 | 2.0 | 0.00 | 0.00 | 0.00 | 99 | 4254.5 |
| 20260902095603 | 72 | 218 | 1.0 | 2.0 | 0.00 | 0.00 | 0.00 | 99 | 4254.3 |
| 20260902094557 | 73 | 216 | 1.0 | 1.0 | 0.00 | 0.00 | 0.00 | 99 | 4254.3 |
| 20260902093553 | 73 | 217 | 1.0 | 2.0 | 0.00 | 0.00 | 0.00 | 99 | 4254.3 |
| 20260902092548 | 73 | 222 | 1.0 | 2.0 | 0.00 | 0.00 | 0.00 | 99 | 4254.2 |
| 20260902091544 | 73 | 211 | 1.0 | 1.0 | 0.00 | 0.00 | 0.00 | 99 | 4254.2 |
| 20260902090542 | 73 | 208 | 1.0 | 1.0 | 0.00 | 0.00 | 0.00 | 99 | 4254.2 |
| 20260902085541 | 73 | 216 | 0.0 | 1.0 | 0.00 | 0.00 | 0.00 | 99 | 4254.0 |
| 20260902084539 | 74 | 209 | 0.0 | 1.0 | 0.00 | 0.00 | 0.00 | 99 | 4253.9 |
| 20260902083536 | 74 | 212 | 1.0 | 1.0 | 0.00 | 0.00 | 0.00 | 99 | 4253.9 |
| 20260902082531 | 74 | 216 | 1.0 | 1.0 | 0.00 | 0.00 | 0.00 | 99 | 4253.7 |
| 20260902081530 | 73 | 216 | 1.0 | 1.0 | 0.00 | 0.00 | 0.00 | 99 | 4253.5 |
| 20260902080525 | 74 | 214 | 1.0 | 1.0 | 0.00 | 0.00 | 0.00 | 99 | 4253.6 |
| 20260902075521 | 73 | 204 | 0.0 | 0.0 | 0.00 | 0.00 | 0.00 | 99 | 4253.6 |
| 20260902074518 | 74 | 216 | 0.0 | 0.0 | 0.00 | 0.00 | 0.00 | 99 | 4253.8 |
| 20260902073514 | 74 | 214 | 1.0 | 2.0 | 0.00 | 0.00 | 0.00 | 99 | 4253.7 |
| 20260902072512 | 74 | 219 | 0.0 | 1.0 | 0.00 | 0.00 | 0.00 | 99 | 4253.8 |
| 20260902071507 | 74 | 211 | 1.0 | 1.0 | 0.00 | 0.00 | 0.00 | 98 | 4253.9 |
| 20260902070505 | 75 | 202 | 0.0 | 0.0 | 0.00 | 0.00 | 0.00 | 98 | 4253.9 |
| 20260902065505 | 74 | 210 | 1.0 | 1.0 | 0.00 | 0.00 | 0.00 | 98 | 4253.7 |
| 20260902064501 | 75 | 218 | 1.0 | 1.0 | 0.00 | 0.00 | 0.00 | 97 | 4253.8 |
| 20260902063457 | 75 | 222 | 1.0 | 1.0 | 0.00 | 0.00 | 0.00 | 97 | 4253.6 |
| 20260902062451 | 75 | 209 | 0.0 | 1.0 | 0.00 | 0.00 | 0.00 | 97 | 4253.9 |
| 20260902061447 | 76 | 211 | 1.0 | 1.0 | 0.00 | 0.00 | 0.00 | 96 | 4253.8 |
| 20260902060445 | 76 | 200 | 1.0 | 1.0 | 0.00 | 0.00 | 0.00 | 96 | 4253.8 |
| 20260902055443 | 76 | 202 | 1.0 | 1.0 | 0.00 | 0.00 | 0.00 | 96 | 4253.8 |
| 20260902054438 | 76 | 207 | 1.0 | 1.0 | 0.00 | 0.00 | 0.00 | 96 | 4253.8 |
| 20260902053435 | 76 | 207 | 0.0 | 1.0 | 0.00 | 0.00 | 0.00 | 96 | 4253.9 |
| 20260902052434 | 77 | 201 | 0.0 | 0.0 | 0.00 | 0.00 | 0.00 | 96 | 4253.9 |
| 20260902051430 | 77 | 201 | 0.0 | 1.0 | 0.00 | 0.00 | 0.00 | 94 | 4253.8 |
| 20260902050429 | 78 | 201 | 0.0 | 0.0 | 0.00 | 0.00 | 0.00 | 96 | 4253.9 |
| 20260902045425 | 78 | 201 | 0.0 | 0.0 | 0.00 | 0.00 | 0.00 | 96 | 4253.9 |
| 20260902044422 | 78 | 201 | 0.0 | 0.0 | 0.00 | 0.00 | 0.00 | 95 | 4253.9 |
| 20260902043419 | 78 | 202 | 0.0 | 1.0 | 0.00 | 0.00 | 0.00 | 94 | 4254.1 |
| 20260902042419 | 78 | 202 | 1.0 | 1.0 | 0.00 | 0.00 | 0.00 | 92 | 4254.0 |
| 20260902041415 | 78 | 202 | 1.0 | 1.0 | 0.00 | 0.00 | 0.00 | 92 | 4254.0 |
| 20260902040414 | 79 | 203 | 1.0 | 1.0 | 0.00 | 0.00 | 0.00 | 89 | 4254.0 |
| 20260902035409 | 80 | 204 | 0.0 | 1.0 | 0.00 | 0.00 | 0.00 | 86 | 4254.0 |
| 20260902034409 | 79 | 205 | 0.0 | 0.0 | 0.00 | 0.00 | 0.00 | 87 | 4254.1 |
| 20260902033408 | 79 | 207 | 1.0 | 1.0 | 0.00 | 0.00 | 0.00 | 88 | 4254.1 |
| 20260902032408 | 79 | 210 | 0.0 | 1.0 | 0.00 | 0.00 | 0.00 | 88 | 4254.2 |
| 20260902031404 | 79 | 219 | 1.0 | 1.0 | 0.00 | 0.00 | 0.00 | 87 | 4254.3 |
| 20260902030400 | 79 | 213 | 2.0 | 2.0 | 0.00 | 0.00 | 0.00 | 86 | 4254.2 |
| 20260902025355 | 80 | 220 | 1.0 | 1.0 | 0.00 | 0.00 | 0.00 | 85 | 4254.0 |
| 20260902024351 | 80 | 206 | 1.0 | 1.0 | 0.00 | 0.00 | 0.00 | 85 | 4253.8 |
| 20260902023348 | 81 | 213 | 1.0 | 1.0 | 0.00 | 0.00 | 0.00 | 85 | 4253.9 |
| 20260902022342 | 81 | 223 | 2.0 | 2.0 | 0.00 | 0.00 | 0.00 | 83 | 4253.7 |
| 20260902021338 | 82 | 207 | 1.0 | 1.0 | 0.00 | 0.00 | 0.00 | 82 | 4253.6 |
| 20260902020336 | 83 | 206 | 0.0 | 0.0 | 0.00 | 0.00 | 0.00 | 81 | 4253.6 |
| 20260902015332 | 84 | 194 | 0.0 | 0.0 | 0.00 | 0.00 | 0.00 | 86 | 4253.4 |
| 20260902014330 | 84 | 194 | 0.0 | 0.0 | 0.00 | 0.00 | 0.00 | 79 | 4253.4 |
| 20260902013330 | 85 | 219 | 0.0 | 0.0 | 0.00 | 0.00 | 0.00 | 79 | 4253.6 |
| 20260902012327 | 85 | 220 | 0.0 | 0.0 | 0.00 | 0.00 | 0.00 | 76 | 4253.3 |
| 20260902011323 | 85 | 220 | 0.0 | 1.0 | 0.00 | 0.00 | 0.00 | 76 | 4253.3 |
| 20260902010323 | 86 | 220 | 0.0 | 0.0 | 0.00 | 0.00 | 0.00 | 77 | 4253.2 |
| 20260902005323 | 87 | 220 | 0.0 | 0.0 | 0.00 | 0.00 | 0.00 | 73 | 4253.2 |
| 20260902004319 | 87 | 220 | 1.0 | 1.0 | 0.00 | 0.00 | 0.00 | 70 | 4253.0 |
| 20260902003314 | 88 | 230 | 0.0 | 0.0 | 0.00 | 0.00 | 0.00 | 68 | 4253.0 |
| 20260902002310 | 89 | 230 | 0.0 | 0.0 | 0.00 | 0.00 | 0.00 | 66 | 4252.9 |
| 20260902001306 | 89 | 230 | 1.0 | 1.0 | 0.00 | 0.00 | 0.00 | 64 | 4252.9 |
| 20260902000306 | 90 | 245 | 1.0 | 1.0 | 0.00 | 0.00 | 0.00 | 64 | 4252.9 |
| 20260901235307 | 90 | 241 | 1.0 | 1.0 | 0.00 | 0.00 | 0.00 | 63 | 4253.1 |
| 20260901234257 | 91 | 237 | 1.0 | 1.0 | 0.00 | 0.00 | 0.00 | 61 | 4253.0 |
| 20260901233253 | 92 | 236 | 1.0 | 1.0 | 0.00 | 0.00 | 0.00 | 60 | 4253.3 |
| 20260901232249 | 93 | 231 | 1.0 | 1.0 | 0.00 | 0.00 | 0.00 | 59 | 4253.3 |
| 20260901231247 | 94 | 230 | 1.0 | 1.0 | 0.00 | 0.00 | 0.00 | 56 | 4253.4 |
| 20260901230242 | 96 | 236 | 3.0 | 3.0 | 0.00 | 0.00 | 0.00 | 51 | 4253.2 |
| 20260901225238 | 97 | 258 | 1.0 | 1.0 | 0.00 | 0.00 | 0.00 | 53 | 4253.2 |
| 20260901224236 | 98 | 293 | 0.0 | 1.0 | 0.00 | 0.00 | 0.00 | 52 | 4253.2 |
| 20260901223232 | 96 | 241 | 1.0 | 2.0 | 0.00 | 0.00 | 0.00 | 57 | 4253.0 |
| 20260901222230 | 93 | 355 | 1.0 | 1.0 | 0.00 | 0.00 | 0.00 | 61 | 4253.1 |
| 20260901221227 | 96 | 308 | 1.0 | 1.0 | 0.00 | 0.00 | 0.00 | 56 | 4253.0 |
| 20260901220226 | 95 | 95 | 1.0 | 1.0 | 0.00 | 0.00 | 0.00 | 62 | 4253.2 |
| 20260901215225 | 92 | 20 | 2.0 | 2.0 | 0.00 | 0.00 | 0.00 | 65 | 4253.0 |
| 20260901214223 | 94 | 353 | 2.0 | 3.0 | 0.00 | 0.00 | 0.00 | 61 | 4253.2 |
| 20260901213218 | 95 | 1 | 1.0 | 2.0 | 0.00 | 0.00 | 0.00 | 64 | 4253.1 |
| 20260901212214 | 95 | 334 | 2.0 | 2.0 | 0.00 | 0.00 | 0.00 | 61 | 4253.3 |
| 20260901211211 | 94 | 354 | 3.0 | 3.0 | 0.00 | 0.00 | 0.00 | 65 | 4253.3 |
| 20260901210207 | 95 | 2 | 2.0 | 2.0 | 0.00 | 0.00 | 0.00 | 66 | 4253.3 |
| 20260901205203 | 95 | 353 | 1.0 | 2.0 | 0.00 | 0.00 | 0.00 | 62 | 4253.5 |
| 20260901204200 | 95 | 17 | 3.0 | 3.0 | 0.00 | 0.00 | 0.00 | 62 | 4253.5 |
| 20260901203155 | 95 | 343 | 2.0 | 3.0 | 0.00 | 0.00 | 0.00 | 61 | 4253.5 |
| 20260901202150 | 95 | 335 | 2.0 | 3.0 | 0.00 | 0.00 | 0.00 | 59 | 4253.8 |
| 20260901201145 | 95 | 4 | 1.0 | 2.0 | 0.00 | 0.00 | 0.00 | 63 | 4253.9 |
| 20260901200140 | 95 | 9 | 3.0 | 3.0 | 0.00 | 0.00 | 0.00 | 62 | 4253.9 |
| 20260901195138 | 96 | 347 | 3.0 | 3.0 | 0.00 | 0.00 | 0.00 | 58 | 4254.0 |
| 20260901194134 | 95 | 351 | 3.0 | 3.0 | 0.00 | 0.00 | 0.00 | 58 | 4253.9 |
| 20260901193130 | 96 | 331 | 3.0 | 3.0 | 0.00 | 0.00 | 0.00 | 56 | 4254.2 |
| 20260901192126 | 96 | 9 | 3.0 | 3.0 | 0.00 | 0.00 | 0.00 | 56 | 4254.3 |
| 20260901191124 | 95 | 4 | 2.0 | 2.0 | 0.00 | 0.00 | 0.00 | 59 | 4254.5 |
| 20260901190119 | 95 | 1 | 3.0 | 3.0 | 0.00 | 0.00 | 0.00 | 56 | 4254.5 |
| 20260901185116 | 95 | 344 | 3.0 | 3.0 | 0.00 | 0.00 | 0.00 | 56 | 4254.7 |
| 20260901184113 | 95 | 355 | 3.0 | 3.0 | 0.00 | 0.00 | 0.00 | 57 | 4254.7 |
| 20260901183109 | 95 | 354 | 3.0 | 3.0 | 0.00 | 0.00 | 0.00 | 58 | 4254.9 |
| 20260901182104 | 95 | 349 | 2.0 | 2.0 | 0.00 | 0.00 | 0.00 | 58 | 4255.0 |
| 20260901181104 | 95 | 7 | 2.0 | 3.0 | 0.00 | 0.00 | 0.00 | 60 | 4255.0 |
| 20260901180058 | 95 | 355 | 1.0 | 1.0 | 0.00 | 0.00 | 0.00 | 61 | 4255.2 |
| 20260901175057 | 94 | 5 | 1.0 | 2.0 | 0.00 | 0.00 | 0.00 | 61 | 4255.4 |
| 20260901174055 | 94 | 16 | 3.0 | 3.0 | 0.00 | 0.00 | 0.00 | 60 | 4255.6 |
| 20260901173051 | 94 | 2 | 3.0 | 3.0 | 0.00 | 0.00 | 0.00 | 66 | 4255.6 |
| 20260901172050 | 93 | 11 | 2.0 | 2.0 | 0.00 | 0.00 | 0.00 | 66 | 4255.7 |
| 20260901171049 | 93 | 14 | 1.0 | 1.0 | 0.00 | 0.00 | 0.00 | 65 | 4255.7 |
| 20260901170044 | 93 | 14 | 1.0 | 1.0 | 0.00 | 0.00 | 0.00 | 66 | 4255.9 |
| 20260901165039 | 92 | 8 | 1.0 | 1.0 | 0.00 | 0.00 | 0.00 | 65 | 4256.1 |
| 20260901164035 | 92 | 11 | 1.0 | 2.0 | 0.00 | 0.00 | 0.00 | 69 | 4256.0 |
| 20260901163036 | 91 | 11 | 3.0 | 3.0 | 0.00 | 0.00 | 0.00 | 71 | 4256.1 |
| 20260901162036 | 90 | 12 | 2.0 | 2.0 | 0.00 | 0.00 | 0.00 | 77 | 4256.3 |
| 20260901161034 | 90 | 15 | 3.0 | 3.0 | 0.00 | 0.00 | 0.00 | 78 | 4256.3 |
| 20260901160032 | 89 | 13 | 2.0 | 2.0 | 0.00 | 0.00 | 0.00 | 79 | 4256.4 |
| 20260901155027 | 89 | 10 | 2.0 | 2.0 | 0.00 | 0.00 | 0.00 | 80 | 4256.4 |
| 20260901154027 | 88 | 7 | 2.0 | 2.0 | 0.00 | 0.00 | 0.00 | 82 | 4256.5 |
| 20260901153022 | 87 | 18 | 3.0 | 3.0 | 0.00 | 0.00 | 0.00 | 82 | 4256.4 |
| 20260901152021 | 86 | 6 | 3.0 | 3.0 | 0.00 | 0.00 | 0.00 | 82 | 4256.5 |
| 20260901151016 | 86 | 8 | 2.0 | 2.0 | 0.00 | 0.00 | 0.00 | 82 | 4256.4 |
| 20260901150013 | 85 | 6 | 1.0 | 1.0 | 0.00 | 0.00 | 0.00 | 83 | 4256.5 |
| 20260901145012 | 85 | 18 | 2.0 | 2.0 | 0.00 | 0.00 | 0.00 | 84 | 4256.6 |
| 20260901144009 | 84 | 38 | 0.0 | 0.0 | 0.00 | 0.00 | 0.00 | 84 | 4256.7 |
| 20260901143007 | 84 | 24 | 1.0 | 2.0 | 0.00 | 0.00 | 0.00 | 85 | 4256.4 |
| 20260901142002 | 82 | 38 | 1.0 | 1.0 | 0.00 | 0.00 | 0.00 | 88 | 4256.3 |
| 20260901140957 | 81 | 21 | 1.0 | 1.0 | 0.00 | 0.00 | 0.00 | 91 | 4256.7 |
| 20260901135955 | 80 | 40 | 0.0 | 1.0 | 0.00 | 0.00 | 0.00 | 94 | 4256.6 |
| 20260901134951 | 79 | 47 | 0.0 | 0.0 | 0.00 | 0.00 | 0.00 | 96 | 4256.3 |
| 20260901133947 | 78 | 9 | 2.0 | 2.0 | 0.00 | 0.00 | 0.00 | 96 | 4256.4 |
| 20260901132945 | 78 | 11 | 0.0 | 0.0 | 0.00 | 0.00 | 0.00 | 97 | 4256.4 |
| 20260901131944 | 77 | 4 | 1.0 | 1.0 | 0.00 | 0.00 | 0.00 | 98 | 4256.5 |
| 20260901130940 | 76 | 330 | 1.0 | 1.0 | 0.00 | 0.00 | 0.00 | 98 | 4256.3 |
| 20260901125938 | 75 | 229 | 1.0 | 1.0 | 0.00 | 0.00 | 0.00 | 99 | 4256.1 |
| 20260901124938 | 74 | 226 | 0.0 | 1.0 | 0.00 | 0.00 | 0.00 | 98 | 4256.1 |
| 20260901123934 | 73 | 207 | 0.0 | 0.0 | 0.00 | 0.00 | 0.00 | 99 | 4256.2 |
| 20260901122933 | 73 | 213 | 0.0 | 1.0 | 0.00 | 0.00 | 0.00 | 99 | 4256.3 |
| 20260901121933 | 72 | 217 | 1.0 | 1.0 | 0.00 | 0.00 | 0.00 | 99 | 4256.3 |
| 20260901120929 | 71 | 212 | 1.0 | 1.0 | 0.00 | 0.00 | 0.00 | 99 | 4256.3 |
| 20260901115924 | 71 | 206 | 1.0 | 1.0 | 0.00 | 0.00 | 0.00 | 99 | 4256.1 |
| 20260901114922 | 71 | 209 | 1.0 | 1.0 | 0.00 | 0.00 | 0.00 | 99 | 4255.9 |
| 20260901113921 | 71 | 218 | 1.0 | 1.0 | 0.00 | 0.00 | 0.00 | 99 | 4255.7 |
| 20260901112922 | 70 | 207 | 1.0 | 1.0 | 0.00 | 0.00 | 0.00 | 99 | 4255.6 |
| 20260901111917 | 71 | 224 | 1.0 | 1.0 | 0.00 | 0.00 | 0.00 | 99 | 4255.4 |
| 20260901110914 | 71 | 226 | 1.0 | 1.0 | 0.00 | 0.00 | 0.00 | 99 | 4255.6 |
| 20260901105912 | 71 | 202 | 0.0 | 0.0 | 0.00 | 0.00 | 0.00 | 99 | 4255.4 |
| 20260901104909 | 71 | 215 | 1.0 | 1.0 | 0.00 | 0.00 | 0.00 | 99 | 4255.4 |
| 20260901103906 | 71 | 213 | 1.0 | 1.0 | 0.00 | 0.00 | 0.00 | 99 | 4255.4 |
| 20260901102906 | 71 | 211 | 1.0 | 1.0 | 0.00 | 0.00 | 0.00 | 99 | 4255.2 |